Weather History for KCNM - July, 2012

Change the Weather History Date:

Sunday, July 22, 2012

  Actual Average Record
Temperature  
Mean Temperature 86 °F -  
Max Temperature 99 °F 93 °F 104 °F (1963)
Min Temperature 73 °F 67 °F 59 °F (1988)
Cooling Degree Days 20    
Growing Degree Days 36 (Base 50)    
Moisture  
Dew Point 52 °F    
Average Humidity 34    
Maximum Humidity 55    
Minimum Humidity 16    
Precipitation  
Precipitation 0.00 in - - ()
Sea Level Pressure  
Sea Level Pressure 29.87 in    
Wind  
Wind Speed 5 mph (NW)    
Max Wind Speed 14 mph    
Max Gust Speed 18 mph    
Visibility 10 miles    
Events      
Averages and records for this station are not official NWS values.
T = Trace of Precipitation, MM = Missing Value Source: NWS Daily Summary

Daily Weather History Graph

Daily Weather History Graph

Search for Another Location

Airport or City:

Trip Planner

Search our weather history database for the weather conditions in past years. The results will help you decide how hot, cold, wet, or windy it might be!

Date:

Astronomy

Jul. 22, 2012 Rise Set
Actual Time 6:05 AM MDT 8:01 PM MDT
Civil Twilight 5:38 AM MDT 8:28 PM MDT
Nautical Twilight 5:05 AM MDT 9:01 PM MDT
Astronomical Twilight 4:29 AM MDT 9:36 PM MDT
Moon 9:36 AM MDT (7/22) 10:04 PM MDT (7/22)
Length of Visible Light 14h 50m
Length of Day
13h 55m
Waxing Crescent, 14% of the Moon is Illuminated
Jul 22
Waxing Crescent
Jul 26
First Quarter
Aug 1
Full
Aug 9
Last Quarter
Aug 17
New

Hourly Weather History & Observations

Time (MDT) Temp. Heat Index Dew Point Humidity Pressure Visibility Wind Dir Wind Speed Gust Speed Precip Events Conditions
12:53 AM 77.0 °F - 55.0 °F 47% 29.87 in 10.0 mi WNW 3.5 mph - N/A   Clear
1:53 AM 75.0 °F - 55.0 °F 50% 29.88 in 10.0 mi Calm Calm - N/A   Clear
2:53 AM 75.0 °F - 57.0 °F 53% 29.87 in 10.0 mi NW 5.8 mph - N/A   Clear
3:53 AM 77.0 °F - 57.0 °F 50% 29.87 in 10.0 mi WNW 3.5 mph - N/A   Clear
4:53 AM 75.9 °F - 57.0 °F 52% 29.88 in 10.0 mi NNW 4.6 mph - N/A   Clear
5:53 AM 75.9 °F - 57.9 °F 54% 29.88 in 10.0 mi NNW 3.5 mph - N/A   Clear
6:53 AM 73.9 °F - 57.0 °F 55% 29.90 in 10.0 mi Calm Calm - N/A   Clear
7:53 AM 77.0 °F - 57.9 °F 52% 29.93 in 10.0 mi NW 4.6 mph - N/A   Clear
8:53 AM 81.0 °F 81.0 °F 57.0 °F 44% 29.94 in 10.0 mi North 6.9 mph - N/A   Partly Cloudy
9:53 AM 84.9 °F 84.2 °F 57.9 °F 40% 29.94 in 10.0 mi North 6.9 mph - N/A   Mostly Cloudy
10:53 AM 89.1 °F 87.3 °F 55.9 °F 32% 29.93 in 10.0 mi NNW 4.6 mph - N/A   Clear
11:53 AM 93.9 °F - 52.0 °F 24% 29.91 in 10.0 mi North 8.1 mph - N/A   Partly Cloudy
12:53 PM 95.0 °F - 48.9 °F 21% 29.90 in 10.0 mi Variable 4.6 mph - N/A   Clear
1:53 PM 96.1 °F - 48.0 °F 19% 29.88 in 10.0 mi Variable 3.5 mph 16.1 mph N/A   Clear
2:53 PM 98.1 °F - 46.9 °F 18% 29.85 in 10.0 mi SSE 9.2 mph - N/A   Clear
3:53 PM 98.1 °F - 46.0 °F 17% 29.83 in 10.0 mi South 13.8 mph 17.3 mph N/A   Clear
4:53 PM 98.1 °F - 45.0 °F 16% 29.82 in 10.0 mi Variable 3.5 mph - N/A   Clear
5:53 PM 98.1 °F - 45.0 °F 16% 29.80 in 10.0 mi South 8.1 mph - N/A   Clear
6:53 PM 96.1 °F - 46.9 °F 19% 29.81 in 10.0 mi SE 13.8 mph 18.4 mph N/A   Partly Cloudy
7:53 PM 91.9 °F - 48.9 °F 23% 29.83 in 10.0 mi ESE 12.7 mph - N/A   Clear
8:53 PM 88.0 °F - 48.9 °F 26% 29.84 in 10.0 mi ESE 6.9 mph - N/A   Clear
9:53 PM 84.0 °F - 48.9 °F 29% 29.86 in 10.0 mi South 3.5 mph - N/A   Clear
10:53 PM 81.0 °F - 48.0 °F 31% 29.87 in 10.0 mi Calm Calm - N/A   Partly Cloudy
11:53 PM 82.0 °F - 46.9 °F 29% 29.87 in 10.0 mi South 6.9 mph - N/A   Clear